Telstar 18

operational
NORAD ID: 28364 Int'l Des: 2004-024 Owner: LOR Country: US
HEOCIRCULAR

Telstar 18について

説明を読み込み中...

リアルタイム位置

3D地球を読み込み中...

次回通過

高度履歴

Altitude vs Time

uPlot chart will show altitude changes over time

軌道要素

1 28364U 04024A 26062.13472015 .00000054 00000-0 00000+0 0 9990
2 28364 6.7035 71.0145 0006015 286.5426 91.4031 0.99011506 79251
Epoch: Mar 3, 2026 • Age: 24 hours

現在のステータス

高度 36125.0 km
速度 3.06 km/s
衛星直下点 -3.38°S, 124.19°W
打ち上げ日 Jun 29, 2004
運用期間 21.6 years
タイプ other

技術仕様

分類 Payload
質量 4845.00 kg
乾燥質量 2000.00 kg
総質量 4845.00 kg
長さ 5.60 m
直径 2.80 m
スパン 31.00 m
形状 Box + 2 Pan
製造者 LOR
バスタイプ SSL-1300
フェーズステータス In Orbit
所有者/国 LOR/US

大規模コンステレーション

Loading constellations...